Voltar ao catálogo

SL-12 R/B

AUX MOTOR

AtivoHEO
NORAD 21220·ROCKET BODY·🇷🇺 Russia

Lançado Apr 4, 1991 de Baikonur Cosmodrome

Loading…

Próximas Passagens (próximas 24 horas)

TLE

AtualizadoSource: Space-Track

Época: Sep 14, 2026, 13:17 UTC

1 21220U 91025F   26257.55385415  .00000123  00000-0  74540-3 0  9991
2 21220  65.1132 200.9572 5481776 112.3429 313.0308  4.44051388554832

Acompanhe SL-12 R/B em tempo real com AllMySat

Download on the App Store